📊 Raw Sensor Data
Showing records 33901 to 33925 of 84,810 total
| ID | Distance (ft) | Battery V | Battery A | Int Temp (°F) | Int Humid (%) | Ext Temp (°F) | Solar V | RSSI | SNR | Time Stamp |
|---|---|---|---|---|---|---|---|---|---|---|
| 50922 | 15.1 | 3.92 | 10 | 57 | 43 | 63 | 4.50 | -72 | 8 | 09/03/2025 07:15 AM |
| 50921 | 15.0 | 3.89 | 0 | 56 | 43 | 58 | 4.50 | -72 | 8 | 09/03/2025 07:00 AM |
| 50920 | 15.1 | 3.82 | -38 | 56 | 43 | 58 | 4.20 | -72 | 8 | 09/03/2025 06:45 AM |
| 50919 | 15.0 | 3.83 | -5 | 56 | 44 | 58 | 0.90 | -72 | 8 | 09/03/2025 06:30 AM |
| 50918 | 15.0 | 3.89 | -5 | 57 | 44 | 59 | 0.00 | -72 | 8 | 09/03/2025 06:15 AM |
| 50917 | 15.1 | 3.89 | -5 | 57 | 44 | 58 | 0.00 | -72 | 8 | 09/03/2025 06:00 AM |
| 50916 | 15.0 | 3.89 | -5 | 58 | 44 | 58 | 0.00 | -72 | 8 | 09/03/2025 05:45 AM |
| 50915 | 15.0 | 3.89 | -5 | 58 | 44 | 60 | 0.00 | -72 | 8 | 09/03/2025 05:30 AM |
| 50914 | 15.0 | 3.89 | -5 | 59 | 44 | 59 | 0.00 | -72 | 8 | 09/03/2025 05:15 AM |
| 50913 | 15.0 | 3.83 | -5 | 59 | 43 | 60 | 0.10 | -72 | 7 | 09/03/2025 05:00 AM |
| 50912 | 15.0 | 3.83 | -5 | 60 | 43 | 61 | 0.10 | -73 | 7 | 09/03/2025 04:45 AM |
| 50911 | 15.0 | 3.83 | -5 | 60 | 43 | 62 | 0.00 | -71 | 8 | 09/03/2025 04:30 AM |
| 50910 | 15.0 | 3.83 | -5 | 60 | 43 | 61 | 0.00 | -73 | 8 | 09/03/2025 04:00 AM |
| 50909 | 15.0 | 3.83 | -5 | 60 | 43 | 61 | 0.00 | -72 | 5 | 09/03/2025 03:45 AM |
| 50908 | 15.0 | 3.83 | -5 | 59 | 44 | 61 | 0.00 | -73 | 8 | 09/03/2025 03:30 AM |
| 50907 | 15.0 | 3.84 | -5 | 59 | 44 | 61 | 0.00 | -72 | 8 | 09/03/2025 03:15 AM |
| 50906 | 15.0 | 3.84 | -5 | 59 | 44 | 61 | 0.10 | -72 | 6 | 09/03/2025 03:00 AM |
| 50905 | 15.0 | 3.84 | -5 | 59 | 44 | 61 | 0.00 | -73 | 8 | 09/03/2025 02:45 AM |
| 50904 | 15.0 | 3.89 | -5 | 59 | 44 | 61 | 0.10 | -73 | 8 | 09/03/2025 02:30 AM |
| 50903 | 15.1 | 3.89 | -5 | 60 | 44 | 60 | 0.00 | -72 | 8 | 09/03/2025 02:15 AM |
| 50902 | 15.0 | 3.89 | -5 | 60 | 44 | 61 | 0.00 | -72 | 8 | 09/03/2025 02:00 AM |
| 50901 | 15.1 | 3.89 | -5 | 60 | 44 | 61 | 0.00 | -73 | 9 | 09/03/2025 01:45 AM |
| 50900 | 15.0 | 3.90 | -5 | 60 | 44 | 61 | 0.00 | -73 | 8 | 09/03/2025 01:30 AM |
| 50899 | 15.0 | 3.90 | -5 | 60 | 45 | 61 | 0.00 | -73 | 7 | 09/03/2025 01:15 AM |
| 50898 | 15.0 | 3.90 | -5 | 61 | 45 | 61 | 0.00 | -71 | 8 | 09/03/2025 01:00 AM |